Home > Weather > Ratingen > Past weeks

Flag for Germany Past Weather in Ratingen, North Rhine-Westphalia, Germany — Yesterday and Last 2 Weeks

Now
77 °F

Broken clouds.


Feels Like: 79 °F
Forecast: 66 / 82 °F
Wind: 8 mph from North

Location: Duesseldorf

Current Time: Jul 23, 2016 at 3:19:03 PM

Latest Report: Jul 23, 2016 at 2:50 PM


Visibility: 5 mi

Pressure: 30.07 "Hg

Humidity: 69%

Dew Point: 66 °F

Location of RatingenLocation

Past Weather in Ratingen — Graph

°F

Ratingen Temperature Yesterday

Maximum temperature yesterday: 82 °F (at 4:50 PM)
Minimum temperature yesterday: 66 °F (at 5:20 AM)
Average temperature yesterday: 74 °F

High & Low Weather Summary for the Past Weeks

 TemperatureHumidityPressure
High95 °F (Jul 20, 4:20 PM)100% (Jul 13, 3:50 AM)30.30 "Hg (Jul 13, 3:50 AM)
Low46 °F (Jul 14, 4:20 AM)30% (Jul 20, 2:50 PM)29.74 "Hg (Jul 10, 8:50 PM)
Average69 °F70%30.04 "Hg
* Reported Jul 8 2:20 PM — Jul 23 2:20 PM, Ratingen, Weather by CustomWeather, © 2016

Note: Actual official high and low records may vary slightly from our data, if they occured in-between our weather recording intervals... More about our weather records

Advertising

Ratingen Weather History for the Previous 24 Hours

Scroll right to see more
 ConditionsComfort  
Time TempWeatherWind HumidityBarometerVisibility
2:20 PM
Sat, Jul 23
75 °FBroken clouds.8 mph74%30.07 "Hg6 mi
1:50 PM75 °FBroken clouds.7 mph74%30.07 "Hg5 mi
1:20 PM75 °FPartly sunny.6 mph74%30.07 "Hg5 mi
12:50 PM75 °FPartly sunny.5 mph74%30.07 "Hg5 mi
12:20 PM73 °FLight rain. Broken clouds.6 mph78%30.07 "Hg5 mi
11:50 AM73 °FLight rain. Broken clouds.7 mph78%30.07 "Hg5 mi
11:20 AM72 °FLight rain. Broken clouds.9 mph78%30.07 "Hg5 mi
10:50 AM72 °FLight rain. Broken clouds.8 mph78%30.07 "Hg5 mi
10:20 AM72 °FScattered showers. Broken clouds.8 mph83%30.04 "Hg5 mi
9:50 AM72 °FBroken clouds.6 mph83%30.04 "Hg5 mi
9:20 AM70 °FBroken clouds.6 mph88%30.04 "Hg5 mi
8:50 AM70 °FBroken clouds.6 mph88%30.04 "Hg5 mi
8:20 AM70 °FClear.6 mph88%30.04 "Hg5 mi
7:50 AM68 °FClear.3 mph94%30.04 "Hg5 mi
7:20 AM68 °FClear.3 mph88%30.04 "Hg6 mi
6:50 AM68 °FClear.2 mph88%30.04 "Hg5 mi
6:20 AM68 °FClear.5 mph88%30.01 "Hg5 mi
5:50 AM66 °FClear.5 mph94%30.01 "Hg5 mi
5:20 AM68 °FClear.2 mph88%30.01 "Hg10 mi
4:50 AM68 °FClear.3 mph88%30.01 "Hg10 mi
4:20 AM68 °FClear.3 mph88%30.01 "Hg10 mi
3:50 AM68 °FPassing clouds.3 mph83%30.01 "HgN/A
3:20 AM68 °FClear.2 mph83%30.01 "Hg10 mi
2:50 AM68 °FClear.3 mph83%30.01 "Hg10 mi
2:20 AM68 °FClear.2 mph83%30.01 "Hg10 mi
1:50 AM68 °FClear.2 mph83%30.01 "Hg10 mi
1:20 AM70 °FClear.5 mph78%30.01 "Hg10 mi
12:50 AM70 °FClear.6 mph78%30.04 "Hg10 mi
12:20 AM70 °FClear.3 mph78%30.04 "Hg10 mi
11:50 PM
Fri, Jul 22
72 °FClear.6 mph69%30.04 "Hg10 mi
11:20 PM72 °FClear.7 mph69%30.01 "Hg10 mi
10:50 PM72 °FClear.6 mph69%30.01 "Hg10 mi
10:20 PM73 °FPassing clouds.6 mph65%30.04 "HgN/A
9:50 PM73 °FSunny.8 mph65%30.01 "Hg10 mi
9:20 PM75 °FSunny.7 mph65%30.01 "Hg10 mi
8:50 PM77 °FSunny.9 mph61%30.01 "Hg10 mi
8:20 PM79 °FSunny.8 mph61%30.01 "Hg10 mi
7:50 PM79 °FSunny.8 mph58%29.98 "Hg10 mi
7:20 PM81 °FSunny.9 mph58%29.98 "Hg10 mi
6:50 PM81 °FSunny.8 mph58%29.98 "Hg10 mi
6:20 PM81 °FSunny.10 mph58%29.98 "Hg10 mi
5:50 PM81 °FPassing clouds.9 mph58%29.98 "HgN/A
5:20 PM82 °FPassing clouds.9 mph48%29.98 "HgN/A
4:50 PM82 °FPartly sunny.10 mph45%30.01 "HgN/A
4:20 PM81 °FBroken clouds.12 mph51%30.01 "HgN/A
3:50 PM81 °FBroken clouds.12 mph51%30.01 "HgN/A
3:20 PM81 °FPassing clouds.10 mph48%30.01 "HgN/A
Weather by CustomWeather, © 2016

See weather overviewHow to use our weather pages